Regional Weather Roundup
Issued by NWS Green Bay, WI

Home | Current Version | Previous Version | Graphics & Text | Print | Product List | Glossary Off
Versions: 1 2 3 4 5 6 7 8 9 10 11 12 13 14 15 16 17 18 19 20 21 22 23 24 25 26 27 28 29 30 31 32 33 34 35 36 37 38 39 40 41 42 43 44 45 46 47 48 49 50

000
ASUS43 KGRB 290211
RWRGRB

NORTH-CENTRAL AND NORTHEAST WISCONSIN REGIONAL WEATHER ROUNDUP
NATIONAL WEATHER SERVICE GREEN BAY WI
900 PM CDT WED JUN 28 2017

WIZ005-009-010>012-018-019-290300-
NORTH CENTRAL WISCONSIN

CITY           SKY/WX    TMP DP  RH WIND       PRES   REMARKS
IRONWOOD       CLOUDY    65  63  93 SE9       29.55F
MANITOWISH WTR RAIN      64  64 100 S6        29.57F
ARBOR VITAE    LGT RAIN  64  63  96 S3        29.57F
EAGLE RIVER    LGT RAIN  63  63 100 CALM      29.60F
LAND O LAKES   CLOUDY    63  63  99 SE7       29.62F
RHINELANDER    CLOUDY    64  64 100 S5        29.59F
PHILLIPS       CLOUDY    66  66 100 S8        29.54F
ANTIGO         CLOUDY    64  64 100 SE10G16   29.60F FOG
TOMAHAWK       NOT AVBL
MERRILL        LGT RAIN  66  66 100 S3        29.57F
$$

WIZ013-073-290300-
NORTHEAST WISCONSIN

CITY           SKY/WX    TMP DP  RH WIND       PRES   REMARKS
IRON MOUNTAIN  LGT RAIN  62  59  90 SE5       29.64S FOG
MARINETTE      CLOUDY    63  61  93 S6        29.66S
OCONTO         CLOUDY    63  61  93 S5        29.64S
$$

WIZ017-030-035>037-045-290300-
CENTRAL WISCONSIN

CITY           SKY/WX    TMP DP  RH WIND       PRES   REMARKS
MEDFORD        CLOUDY    65  64  97 S6        29.57F
WAUSAU         CLOUDY    66  65  96 SE6       29.57R
MOSINEE        CLOUDY    66  66 100 S8        29.60R FOG
MARSHFIELD     CLOUDY    66  64  93 S8        29.56F FOG
WISC RAPIDS    LGT RAIN  68  66  93 S6        29.61F FOG
STEVENS POINT  CLOUDY    65  65 100 S6        29.60F FOG
WAUPACA        CLOUDY    68  67  98 SE6       29.61F FOG
SHAWANO        CLOUDY    68  64  88 S6        29.62F
CLINTONVILLE   CLOUDY    64  63  94 SE7       29.62S FOG
WAUTOMA        CLOUDY    66  66 100 SE9       29.64R FOG
$$

WIZ038-039-048-051-290300-
FOX VALLEY

CITY           SKY/WX    TMP DP  RH WIND       PRES   REMARKS
NWS GREEN BAY  CLOUDY    66  66 100 S7        29.66R
APPLETON       MOCLDY    66  66 100 S6        29.63S
OSHKOSH        CLOUDY    66  63  90 SW8       29.65R
FOND DU LAC    CLOUDY    66  60  81 SW8       29.68R
$$

WIZ022-050-052-290300-
EAST CENTRAL WISCONSIN

CITY           SKY/WX    TMP DP  RH WIND       PRES   REMARKS
EPHRAIM        CLOUDY    59  58  96 S10G20    29.67R
WASHINGTON ISL LGT RAIN  59  58  97 S9        29.66F
STURGEON BAY     N/A     60  59  96 S16G24    29.67R
MANITOWOC      LGT RAIN  60  58  92 S15       29.67F FOG
SHEBOYGAN      LGT RAIN  64  63  96 S14G22    29.61F
$$

LMZ563-521-522-541>543-290300-
LAKESHORE

STATION/POSITION TIME  TEMP    WIND        PRES    VSBY  WAVE
                       AIR SEA DIR/SP/G                  HT/PER
                 (UTC) (F)     (DEG/KT/KT) (MB)    (MI)  (FT/S)
SHEBOYGAN LKSHOR 0200   56     140/ 29/ 30 1001.5F
KEWAUNEE LKSHORE 0142   58     180/ 18/ 21 1004.7F
NORTHPORT PIER   0140   60     150/ 10/ 15 1004.7F
N MID LAKE BUOY  0150   57 54  160/ 12/ 14 1005.5F         5/ 7
S GREEN BAY BUOY 0130   65     170/ 17/ 19 1003.7F
SISTER BAY LKSHO 0123   59     170/ 16/ 21   N/A
CHAMBERS ISLAND  0140   62     150/  4/ 11 1004.1F
MENOMINEE LKSHOR 0142          150/ 10/ 12 1003.6R
$$




USA.gov is the U.S. government's official web portal to all federal, state and local government web resources and services.